[[{"header":{"parameterUnit":"m.s-1","parameterCategory":1,"la1":30.2991,"la2":30.254,"lo1":-89.0895,"lo2":-89.0444,"dy":0.0017,"dx":0.0017,"nx":28,"ny":28,"refTime":"2025-06-04T03:00:00:Z","depth":0,"parameterNumber":2,"parameterNumberName":"U-component_of_WINDS"},"data":[0,0,0,0,0,0,0,0,0,0,0,0,0,0,0,0,0,0,0,0,0,0,0,0,0,0,0,0,0,0,0,0,0,0,0,0,0,0,0,0,0,0,0,0,0,0,0,0,0,0,0,0,0,0,0,0,0,0,-3.0863,-3.0864,0,-3.0937,-3.0938,-3.0939,-3.0941,-3.0941,-3.094,-3.0939,-3.1015,-3.1018,-3.1021,0,0,0,0,0,0,0,0,0,0,0,0,0,-3.0725,-3.0727,-3.0863,-3.0864,-3.0865,-3.0937,-3.0938,-3.0939,-3.0942,-3.0941,-3.0939,-3.0938,-3.1014,-3.1018,-3.1021,0,0,0,0,0,0,0,0,0,0,0,0,0,-3.0791,-3.0728,-3.0862,-3.0875,-3.0876,-3.0937,-3.0938,-3.0939,-3.0942,-3.094,-3.0939,-3.0938,-3.1013,-3.1017,-3.1021,-3.1075,0,0,-3.1035,-3.1036,0,0,0,0,0,0,0,0,-3.0787,-3.0796,-3.0872,-3.0874,-3.0876,-3.0929,-3.0917,-3.0985,-3.0942,-3.0917,-3.0939,-3.0937,-3.0987,-3.0994,-3.1011,-3.1078,-3.1082,-3.1035,-3.1038,-3.1039,-3.1041,0,0,0,0,0,0,0,-3.0782,-3.0792,-3.0892,-3.0873,-3.0876,-3.0877,-3.0885,-3.093,-3.0959,-3.0919,-3.0919,-3.0928,-3.0988,-3.1006,-3.1012,-3.1083,-3.1035,-3.1039,-3.1041,-3.1043,-3.12,-3.1201,0,0,0,0,0,0,-3.0775,-3.0789,-3.089,-3.0894,-3.0827,-3.0881,-3.0889,-3.0913,-3.0958,-3.0964,-3.0929,-3.0928,-3.1,-3.1007,-3.1015,-3.108,-3.1039,-3.1043,-3.1046,-3.1198,-3.12,-3.1202,0,0,0,0,0,0,-3.0772,-3.0784,-3.0887,-3.0842,-3.0855,-3.0884,-3.0911,-3.0915,-3.0933,-3.0966,-3.0971,-3.0942,-3.0999,-3.1009,-3.106,-3.1083,-3.1045,-3.1049,-3.1196,-3.1199,-3.1201,-3.1211,0,0,0,0,0,0,-3.0768,-3.0783,-3.0803,-3.0842,-3.0857,-3.093,-3.0912,-3.0918,-3.0941,-3.094,-3.098,-3.0985,-3.0999,-3.1054,-3.1064,-3.1088,-3.1053,-3.1194,-3.1197,-3.12,-3.1209,-3.1214,-3.1218,0,0,0,0,0,-3.0763,-3.0803,-3.0804,-3.0816,-3.0882,-3.0931,-3.094,-3.0954,-3.0943,-3.0963,-3.0985,-3.0984,-3.108,-3.1059,-3.1071,-3.1096,-3.1193,-3.1196,-3.12,-3.1207,-3.1213,-3.1218,0,0,0,0,0,0,-3.0764,-3.0808,-3.0809,-3.0863,-3.0893,-3.0931,-3.0957,-3.096,-3.0995,-3.0992,-3.101,-3.1019,-3.107,-3.1089,-3.1065,-3.1151,-3.1135,-3.1141,-3.1136,-3.1142,-3.1146,-3.1139,-3.1056,0,0,0,0,0,-3.0771,-3.0806,-3.0843,-3.0886,-3.0902,-3.0927,-3.0949,-3.0958,-3.099,-3.1003,-3.1028,-3.106,-3.1097,-3.1121,-3.1157,-3.1213,-3.1222,-3.1237,-3.1241,-3.1245,-3.1249,-3.128,-3.1287,-3.1213,-3.1213,-3.1213,0,0,-3.0784,-3.0813,-3.0834,-3.0887,-3.0912,-3.0948,-3.0938,-3.0977,-3.1004,-3.1009,-3.1058,-3.1079,-3.1115,-3.1169,-3.1194,-3.1186,-3.1272,-3.1249,-3.1252,-3.1254,-3.1285,-3.1292,-3.1298,-3.1216,-3.1215,-3.1215,0,0,-3.0827,-3.0852,-3.0891,-3.0917,-3.0955,-3.0972,-3.0982,-3.1021,-3.1034,-3.1084,-3.1089,-3.1123,-3.1187,-3.1213,-3.1234,-3.1291,-3.1292,-3.1303,-3.1325,-3.1355,-3.1361,-3.1366,-3.1385,-3.1392,-3.1308,-3.1308,-3.1308,0,-3.0838,-3.0893,-3.0911,-3.095,-3.0974,-3.0982,-3.1021,-3.1046,-3.1094,-3.111,-3.1102,-3.1183,-3.1209,-3.1268,-3.1282,-3.13,-3.1312,-3.1296,-3.1359,-3.1364,-3.1369,-3.1387,-3.1395,-3.1309,-3.1309,-3.1309,-3.1308,0,-3.0905,-3.0944,-3.0971,-3.1017,-3.1045,-3.1084,-3.1108,-3.1134,-3.1142,-3.1161,-3.1213,-3.1244,-3.1287,-3.1303,-3.1311,-3.1365,-3.1359,-3.1355,-3.1338,-3.1377,-3.1394,-3.1402,-3.131,-3.131,-3.1309,-3.1309,0,0,-3.0946,-3.1005,-3.1014,-3.1035,-3.108,-3.111,-3.1151,-3.1194,-3.1215,-3.125,-3.1284,-3.134,-3.1337,-3.1361,-3.1373,-3.14,-3.1443,-3.1393,-3.1394,-3.1399,-3.1503,-3.1504,-3.1512,-3.1445,-3.1446,-3.1448,-3.15,0,-3.0992,-3.1064,-3.1083,-3.1144,-3.118,-3.119,-3.1226,-3.1257,-3.1277,-3.1311,-3.1333,-3.1372,-3.1365,-3.138,-3.1408,-3.1431,-3.1463,-3.1428,-3.1476,-3.1478,-3.1464,-3.1522,-3.1523,-3.157,-3.1507,-3.1508,-3.1509,0,-3.1054,-3.109,-3.1155,-3.1196,-3.1212,-3.1243,-3.1285,-3.1318,-3.1355,-3.1367,-3.1396,-3.1406,-3.145,-3.1435,-3.1496,-3.1471,-3.1493,-3.1508,-3.1511,-3.1513,-3.1493,-3.1524,-3.1585,-3.1592,-3.152,-3.1519,-3.1519,0,-3.1076,-3.1141,-3.1188,-3.1207,-3.1256,-3.1278,-3.13,-3.1336,-3.1361,-3.1398,-3.1414,-3.1456,-3.1478,-3.1511,-3.1533,-3.1519,-3.1592,-3.1578,-3.1603,-3.1603,-3.1615,-3.1613,-3.1679,-3.1634,-3.1633,-3.1633,-3.1633,0,-3.1123,-3.1162,-3.1198,-3.1227,-3.1271,-3.1294,-3.1338,-3.136,-3.1393,-3.1426,-3.1439,-3.1471,-3.1499,-3.1535,-3.1553,-3.16,-3.1611,-3.1622,-3.1626,-3.1619,-3.1618,-3.1631,-3.1628,-3.1635,-3.1635,-3.1634,-3.1634,0,-3.1153,-3.1179,-3.1231,-3.1274,-3.1287,-3.1317,-3.1355,-3.1384,-3.1406,-3.1449,-3.146,-3.1494,-3.1537,-3.1563,-3.1618,-3.163,-3.1682,-3.1686,-3.1669,-3.167,-3.1694,-3.169,-3.1768,-3.1779,-3.1728,-3.1729,-3.1729,0,-3.1179,-3.121,-3.1258,-3.1281,-3.1303,-3.1342,-3.1368,-3.1392,-3.1419,-3.1465,-3.1489,-3.1533,-3.1569,-3.1638,-3.1668,-3.171,-3.1714,-3.1738,-3.172,-3.1713,-3.1712,-3.1709,-3.1712,-3.174,-3.174,-3.1741,-3.1741,0,-3.1224,-3.1237,-3.1273,-3.1315,-3.1346,-3.138,-3.1415,-3.1434,-3.1465,-3.1494,-3.1539,-3.1567,-3.1624,-3.1667,-3.1713,-3.1737,-3.1744,-3.1747,-3.1755,-3.1747,-3.1736,-3.1741,-3.1675,-3.1744,-3.1744,-3.1744,-3.1744,-3.1743,-3.1252,-3.128,-3.1318,-3.1359,-3.1388,-3.142,-3.145,-3.1476,-3.1513,-3.1561,-3.1575,-3.1621,-3.166,-3.1722,-3.1747,-3.1784,-3.178,-3.1792,-3.1794,-3.1796,-3.1796,-3.1732,-3.1793,-3.1793,-3.1793,-3.1793,-3.1793,0,-3.1296,-3.1322,-3.136,-3.1408,-3.1441,-3.1447,-3.1486,-3.1512,-3.1553,-3.1589,-3.1625,-3.1677,-3.1721,-3.1755,-3.18,-3.1823,-3.1828,-3.1834,-3.1831,-3.1836,-3.1798,-3.1786,-3.183,-3.183,-3.183,-3.183,-3.183,-3.183,-3.1323,-3.137,-3.1387,-3.1449,-3.1475,-3.1521,-3.1542,-3.1573,-3.1601,-3.1659,-3.1695,-3.1718,-3.1753,-3.1801,-3.1842,-3.1851,-3.1866,-3.1871,-3.1881,-3.1843,-3.1839,-3.1835,-3.1824,-3.1875,-3.1875,-3.1916,-3.1917,-3.1917]},{"header":{"parameterUnit":"m.s-1","parameterCategory":1,"la1":30.2991,"la2":30.254,"lo1":-89.0895,"lo2":-89.0444,"dy":0.0017,"dx":0.0017,"nx":28,"ny":28,"refTime":"2025-06-04T03:00:00:Z","depth":0,"parameterNumber":3,"parameterNumberName":"V-component_of_WINDS"},"data":[0,0,0,0,0,0,0,0,0,0,0,0,0,0,0,0,0,0,0,0,0,0,0,0,0,0,0,0,0,0,0,0,0,0,0,0,0,0,0,0,0,0,0,0,0,0,0,0,0,0,0,0,0,0,0,0,0,0,1.909,1.909,0,1.9103,1.9103,1.9103,1.9132,1.9133,1.9134,1.9134,1.9145,1.9144,1.9144,0,0,0,0,0,0,0,0,0,0,0,0,0,1.9087,1.9087,1.909,1.909,1.909,1.9103,1.9103,1.9103,1.9132,1.9133,1.9134,1.9134,1.9145,1.9144,1.9144,0,0,0,0,0,0,0,0,0,0,0,0,0,1.9093,1.9087,1.909,1.9106,1.9108,1.9103,1.9103,1.9103,1.9132,1.9133,1.9134,1.9135,1.9145,1.9144,1.9144,1.9124,0,0,1.9143,1.9143,0,0,0,0,0,0,0,0,1.9093,1.9093,1.9103,1.9105,1.9107,1.9117,1.9106,1.911,1.9132,1.9123,1.9134,1.9135,1.9135,1.9135,1.9135,1.9124,1.9124,1.9143,1.9142,1.9142,1.9142,0,0,0,0,0,0,0,1.9092,1.9093,1.9095,1.9104,1.9106,1.9112,1.9114,1.9107,1.9123,1.9124,1.9126,1.9127,1.9136,1.9136,1.9136,1.9125,1.9143,1.9142,1.9142,1.9142,1.9098,1.9097,0,0,0,0,0,0,1.909,1.9092,1.9094,1.9095,1.9102,1.9111,1.9113,1.9113,1.9123,1.9126,1.9126,1.9128,1.9136,1.9136,1.9136,1.9114,1.9142,1.9142,1.9142,1.9099,1.9098,1.9097,0,0,0,0,0,0,1.9089,1.909,1.9094,1.9094,1.9095,1.911,1.9109,1.9113,1.9113,1.9126,1.9128,1.9124,1.9137,1.9137,1.9127,1.9114,1.9142,1.9141,1.91,1.9099,1.9097,1.9068,0,0,0,0,0,0,1.9089,1.9089,1.9082,1.9094,1.9095,1.9085,1.9109,1.9112,1.9112,1.9115,1.9124,1.9126,1.9137,1.9127,1.9127,1.9114,1.9141,1.9101,1.9099,1.9098,1.907,1.9065,1.9062,0,0,0,0,0,1.9089,1.9072,1.9082,1.9082,1.9087,1.9084,1.9085,1.9099,1.9111,1.9104,1.9112,1.9126,1.9116,1.9126,1.9125,1.9113,1.9102,1.91,1.9098,1.9072,1.9066,1.9062,0,0,0,0,0,0,1.9057,1.9074,1.9085,1.9071,1.9076,1.9089,1.908,1.9093,1.9093,1.9096,1.9113,1.9114,1.9102,1.9106,1.9117,1.9094,1.9111,1.9109,1.9092,1.9087,1.9083,1.9082,1.9141,0,0,0,0,0,1.9049,1.9046,1.9061,1.9048,1.905,1.9064,1.9064,1.9075,1.908,1.9082,1.9089,1.9093,1.9091,1.9089,1.9088,1.9071,1.9073,1.9062,1.9058,1.9054,1.9052,1.9044,1.9039,1.909,1.909,1.909,0,0,1.9031,1.904,1.9037,1.9042,1.9047,1.9043,1.9066,1.9061,1.9058,1.908,1.9072,1.9078,1.9083,1.907,1.9064,1.9073,1.9039,1.9052,1.9049,1.9048,1.9041,1.9036,1.9032,1.9089,1.9089,1.9089,0,0,1.8997,1.9004,1.8994,1.8999,1.9007,1.9017,1.9015,1.9026,1.9031,1.9023,1.904,1.9036,1.9032,1.9036,1.9037,1.9006,1.9018,1.9005,1.8983,1.8975,1.8971,1.8968,1.8956,1.8952,1.9002,1.9002,1.9002,0,1.8974,1.897,1.8987,1.8981,1.8983,1.9005,1.8995,1.8998,1.9005,1.9005,1.9015,1.9011,1.9016,1.9004,1.8997,1.8997,1.8995,1.9003,1.897,1.8967,1.8964,1.8954,1.8949,1.9,1.9001,1.9001,1.9001,0,1.8941,1.8938,1.8929,1.8936,1.8937,1.8929,1.8944,1.8942,1.8953,1.8962,1.8954,1.8961,1.8962,1.896,1.897,1.895,1.8955,1.8968,1.8985,1.8957,1.8948,1.8944,1.8998,1.8999,1.8999,1.9,0,0,1.8886,1.8905,1.8901,1.8905,1.8916,1.8913,1.8906,1.8908,1.8907,1.891,1.8905,1.8902,1.8914,1.8915,1.8926,1.8919,1.8894,1.8932,1.8933,1.8925,1.8872,1.8862,1.8858,1.8903,1.8902,1.8901,1.8872,0,1.8855,1.8845,1.8861,1.8847,1.8844,1.8866,1.886,1.8865,1.8874,1.8872,1.8881,1.8878,1.8894,1.8896,1.889,1.8898,1.8883,1.8901,1.8897,1.8897,1.8895,1.8853,1.8842,1.8814,1.8868,1.8867,1.8867,0,1.8816,1.882,1.8806,1.8819,1.8819,1.8813,1.8817,1.8815,1.8822,1.8828,1.8831,1.8844,1.8838,1.8855,1.8847,1.8858,1.8857,1.8862,1.8861,1.8861,1.888,1.8851,1.8805,1.8801,1.8861,1.8862,1.8862,0,1.8778,1.878,1.8772,1.8775,1.8789,1.8785,1.879,1.8798,1.8799,1.8802,1.8802,1.8804,1.8805,1.8805,1.8819,1.883,1.8808,1.8827,1.8813,1.8813,1.8807,1.8807,1.876,1.8807,1.8807,1.8807,1.8807,0,1.8741,1.8732,1.8755,1.875,1.8741,1.8759,1.8748,1.8756,1.8763,1.876,1.8778,1.8774,1.8792,1.879,1.8801,1.8792,1.8792,1.8797,1.88,1.8795,1.8795,1.8795,1.8797,1.8806,1.8807,1.8807,1.8807,0,1.8697,1.8712,1.8705,1.872,1.8723,1.8715,1.8728,1.8724,1.8734,1.8729,1.8729,1.8744,1.8743,1.8757,1.8758,1.8765,1.8752,1.8758,1.8749,1.8751,1.8737,1.8738,1.8688,1.8683,1.8733,1.8733,1.8732,0,1.8672,1.8666,1.868,1.868,1.8685,1.8684,1.8685,1.8703,1.8703,1.8711,1.8706,1.8707,1.8708,1.8705,1.8716,1.8717,1.8723,1.8706,1.8723,1.8719,1.8723,1.8723,1.8723,1.8702,1.8701,1.8701,1.87,0,1.8627,1.8635,1.8637,1.8641,1.8642,1.8646,1.8651,1.8649,1.8668,1.8667,1.8667,1.8668,1.867,1.8671,1.8674,1.8679,1.8692,1.8695,1.8692,1.8687,1.8682,1.8685,1.8739,1.8696,1.8696,1.8696,1.8697,1.8697,1.8592,1.8588,1.8597,1.8598,1.8604,1.8609,1.8606,1.8616,1.8617,1.862,1.863,1.8628,1.8636,1.8642,1.8646,1.8644,1.8653,1.8648,1.8647,1.8646,1.8643,1.8683,1.8645,1.8645,1.8645,1.8645,1.8646,0,1.8548,1.8555,1.8556,1.8563,1.8564,1.8578,1.8585,1.8584,1.8583,1.8589,1.8591,1.859,1.8591,1.8602,1.8604,1.8601,1.8607,1.86,1.8601,1.8602,1.8635,1.8638,1.8595,1.8595,1.8595,1.8595,1.8595,1.8595,1.8525,1.8518,1.8528,1.8524,1.8532,1.8531,1.8534,1.8538,1.8543,1.8542,1.8543,1.8551,1.856,1.8562,1.8563,1.8567,1.8566,1.8558,1.8563,1.8594,1.8599,1.8604,1.8606,1.8558,1.8558,1.853,1.8529,1.8529]}]]